2024-166B

Last updated on Fri Oct 18 2024 00:02:03 GMT+0000 (Coordinated Universal Time)

1 61180U 24166B 24291.56053472 .00067203 00000+0 32686-3 0 9990 2 61180 96.7637 186.4311 0016133 126.5073 233.7686 15.82035600 4760

Satellite not in orbit

2024-166B